Rock Falls, IL

6:15 AM CST on February 11, 2016 (GMT -0600)
Whiteside County-Bittorf

Weather History for KSQI - February, 2014

Change the Weather History Date:

Monday, February 24, 2014

  Actual Average Record
Temperature  
Mean Temperature 16 °F -  
Max Temperature 21 °F 36 °F 64 °F (2002)
Min Temperature 10 °F 21 °F 5 °F (2013)
Degree Days  
Heating Degree Days 50    
Moisture  
Dew Point 7 °F    
Average Humidity 67    
Maximum Humidity 79    
Minimum Humidity 58    
Precipitation  
Precipitation 0.00 in - - ()
Sea Level Pressure  
Sea Level Pressure 30.28 in    
Wind  
Wind Speed 11 mph (WNW)    
Max Wind Speed 20 mph    
Max Gust Speed 23 mph    
Visibility 10 miles    
Events      
Averages and records for this station are not official NWS values.
T = Trace of Precipitation, MM = Missing Value Source: NWS Daily Summary

Daily Weather History Graph

Daily Weather History Graph

Search for Another Location

Airport or City:

Trip Planner

Search our weather history database for the weather conditions in past years. The results will help you decide how hot, cold, wet, or windy it might be!

Date:

Astronomy

Feb. 24, 2014 Rise Set
Actual Time 6:41 AM CST 5:43 PM CST
Civil Twilight 6:13 AM CST 6:11 PM CST
Nautical Twilight 5:40 AM CST 6:43 PM CST
Astronomical Twilight 5:08 AM CST 7:15 PM CST
Moon 2:42 AM CST (2/24) 12:41 PM CST (2/24)
Length of Visible Light 11h 58m
Length of Day
11h 01m
Waning Crescent, 28% of the Moon is Illuminated
Feb 24
Waning Crescent
Mar 1
New
Mar 8
First Quarter
Mar 16
Full
Mar 23
Last Quarter

Hourly Weather History & Observations

Time (CST) Temp. Windchill Dew Point Humidity Pressure Visibility Wind Dir Wind Speed Gust Speed Precip Events Conditions
12:15 AM 12.2 °F -0.2 °F 5.0 °F 73% 30.26 in 10.0 mi WNW 9.2 mph - N/A   Clear
12:35 AM 12.2 °F -1.0 °F 5.0 °F 73% 30.26 in 10.0 mi WNW 10.4 mph - N/A   Clear
12:55 AM 12.2 °F -1.8 °F 5.0 °F 73% 30.26 in 10.0 mi WNW 11.5 mph - N/A   Clear
1:15 AM 12.2 °F -1.8 °F 5.0 °F 73% 30.26 in 10.0 mi WNW 11.5 mph - N/A   Clear
1:35 AM 12.2 °F -1.0 °F 5.0 °F 73% 30.26 in 10.0 mi West 10.4 mph - N/A   Clear
1:55 AM 12.2 °F -1.0 °F 5.0 °F 73% 30.26 in 10.0 mi West 10.4 mph - N/A   Clear
2:15 AM 12.2 °F -1.0 °F 5.0 °F 73% 30.25 in 10.0 mi WNW 10.4 mph - N/A   Clear
2:35 AM 12.2 °F -1.0 °F 5.0 °F 73% 30.26 in 10.0 mi West 10.4 mph - N/A   Clear
2:55 AM 12.2 °F -1.8 °F 5.0 °F 73% 30.26 in 10.0 mi WNW 11.5 mph - N/A   Clear
3:15 AM 12.2 °F -1.8 °F 5.0 °F 73% 30.25 in 10.0 mi WNW 11.5 mph - N/A   Clear
3:35 AM 12.2 °F -1.8 °F 5.0 °F 73% 30.26 in 10.0 mi WNW 11.5 mph - N/A   Clear
3:55 AM 12.2 °F -1.0 °F 5.0 °F 73% 30.25 in 10.0 mi WNW 10.4 mph - N/A   Clear
4:15 AM 10.4 °F -2.4 °F 5.0 °F 79% 30.26 in 10.0 mi WNW 9.2 mph - N/A   Clear
4:35 AM 10.4 °F -4.1 °F 5.0 °F 79% 30.27 in 10.0 mi WNW 11.5 mph - N/A   Clear
4:55 AM 10.4 °F -4.1 °F 5.0 °F 79% 30.28 in 10.0 mi WNW 11.5 mph - N/A   Clear
5:15 AM 10.4 °F -4.8 °F 3.2 °F 73% 30.27 in 10.0 mi WNW 12.7 mph - N/A   Clear
5:35 AM 10.4 °F -4.1 °F 3.2 °F 73% 30.27 in 10.0 mi WNW 11.5 mph - N/A   Clear
5:55 AM 10.4 °F -3.3 °F 3.2 °F 73% 30.28 in 10.0 mi WNW 10.4 mph - N/A   Clear
6:15 AM 10.4 °F -2.4 °F 3.2 °F 73% 30.27 in 10.0 mi WNW 9.2 mph - N/A   Clear
6:35 AM 10.4 °F -1.5 °F 3.2 °F 73% 30.27 in 10.0 mi NW 8.1 mph - N/A   Clear
6:55 AM 10.4 °F -3.3 °F 3.2 °F 73% 30.27 in 10.0 mi NW 10.4 mph - N/A   Clear
7:15 AM 10.4 °F -2.4 °F 3.2 °F 73% 30.27 in 10.0 mi NW 9.2 mph - N/A   Clear
7:35 AM 12.2 °F -1.0 °F 3.2 °F 67% 30.28 in 10.0 mi NNW 10.4 mph - N/A   Clear
7:55 AM 12.2 °F -0.2 °F 3.2 °F 67% 30.29 in 10.0 mi NW 9.2 mph - N/A   Clear
8:15 AM 14.0 °F 1.2 °F 3.2 °F 62% 30.30 in 10.0 mi WNW 10.4 mph - N/A   Clear
8:35 AM 14.0 °F 2.0 °F 3.2 °F 62% 30.30 in 10.0 mi WNW 9.2 mph - N/A   Clear
8:55 AM 15.8 °F 3.4 °F 5.0 °F 62% 30.31 in 10.0 mi WNW 10.4 mph - N/A   Clear
9:15 AM 15.8 °F 2.1 °F 3.2 °F 58% 30.31 in 10.0 mi WNW 12.7 mph - N/A   Clear
9:35 AM 15.8 °F 1.4 °F 5.0 °F 62% 30.32 in 10.0 mi West 13.8 mph - N/A   Clear
9:55 AM 17.6 °F 4.3 °F 5.0 °F 58% 30.32 in 10.0 mi WNW 12.7 mph - N/A   Clear
10:15 AM 17.6 °F 4.3 °F 5.0 °F 58% 30.33 in 10.0 mi WNW 12.7 mph - N/A   Clear
10:35 AM 17.6 °F 4.3 °F 6.8 °F 63% 30.33 in 10.0 mi West 12.7 mph - N/A   Clear
10:55 AM 17.6 °F 2.2 °F 6.8 °F 63% 30.34 in 10.0 mi West 17.3 mph - N/A   Clear
11:15 AM 19.4 °F 5.5 °F 8.6 °F 63% 30.34 in 10.0 mi West 15.0 mph - N/A   Clear
11:35 AM 19.4 °F 4.1 °F 8.6 °F 63% 30.33 in 10.0 mi WNW 18.4 mph 21.9 mph N/A   Clear
11:55 AM 19.4 °F 3.6 °F 8.6 °F 63% 30.33 in 10.0 mi WNW 19.6 mph 23.0 mph N/A   Clear
12:15 PM 21.2 °F 7.8 °F 8.6 °F 58% 30.32 in 10.0 mi NW 15.0 mph - N/A   Clear
12:35 PM 21.2 °F 7.8 °F 8.6 °F 58% 30.31 in 10.0 mi WNW 15.0 mph - N/A   Clear
12:55 PM 21.2 °F 7.3 °F 8.6 °F 58% 30.31 in 10.0 mi WNW 16.1 mph - N/A   Clear
1:15 PM 21.2 °F 7.3 °F 8.6 °F 58% 30.30 in 10.0 mi WNW 16.1 mph 21.9 mph N/A   Clear
1:35 PM 21.2 °F 7.8 °F 8.6 °F 58% 30.30 in 10.0 mi NW 15.0 mph - N/A   Clear
1:55 PM 21.2 °F 7.3 °F 8.6 °F 58% 30.30 in 10.0 mi WNW 16.1 mph - N/A   Clear
2:15 PM 21.2 °F 7.8 °F 10.4 °F 63% 30.29 in 10.0 mi WNW 15.0 mph - N/A   Clear
2:35 PM 21.2 °F 7.8 °F 8.6 °F 58% 30.28 in 10.0 mi WNW 15.0 mph - N/A   Clear
2:55 PM 21.2 °F 8.3 °F 8.6 °F 58% 30.27 in 10.0 mi WNW 13.8 mph - N/A   Clear
3:35 PM 21.2 °F 10.1 °F 8.6 °F 58% 30.27 in 10.0 mi WNW 10.4 mph - N/A   Clear
3:55 PM 21.2 °F 8.9 °F 8.6 °F 58% 30.27 in 10.0 mi WNW 12.7 mph - N/A   Clear
4:15 PM 21.2 °F 8.9 °F 8.6 °F 58% 30.27 in 10.0 mi NW 12.7 mph - N/A   Clear
4:35 PM 19.4 °F 6.6 °F 10.4 °F 68% 30.27 in 10.0 mi WNW 12.7 mph - N/A   Partly Cloudy
4:55 PM 19.4 °F 7.9 °F 8.6 °F 63% 30.26 in 10.0 mi WNW 10.4 mph - N/A   Partly Cloudy
5:15 PM 19.4 °F 8.6 °F 8.6 °F 63% 30.25 in 10.0 mi WNW 9.2 mph - N/A   Clear
5:35 PM 19.4 °F 7.9 °F 6.8 °F 58% 30.25 in 10.0 mi WNW 10.4 mph - N/A   Clear
5:55 PM 19.4 °F 7.2 °F 6.8 °F 58% 30.25 in 10.0 mi NW 11.5 mph - N/A   Clear
6:15 PM 17.6 °F 7.3 °F 6.8 °F 63% 30.25 in 10.0 mi WNW 8.1 mph - N/A   Mostly Cloudy
6:35 PM 17.6 °F 5.7 °F 8.6 °F 68% 30.25 in 10.0 mi WNW 10.4 mph - N/A   Scattered Clouds
6:55 PM 17.6 °F 5.7 °F 8.6 °F 68% 30.25 in 10.0 mi WNW 10.4 mph - N/A   Clear
7:15 PM 17.6 °F 5.7 °F 8.6 °F 68% 30.25 in 10.0 mi WNW 10.4 mph - N/A   Partly Cloudy
7:35 PM 17.6 °F 5.0 °F 8.6 °F 68% 30.24 in 10.0 mi WNW 11.5 mph - N/A   Mostly Cloudy
7:55 PM 17.6 °F 5.0 °F 8.6 °F 68% 30.25 in 10.0 mi NW 11.5 mph - N/A   Scattered Clouds
8:15 PM 17.6 °F 4.3 °F 8.6 °F 68% 30.26 in 10.0 mi WNW 12.7 mph - N/A   Partly Cloudy
8:35 PM 17.6 °F 5.7 °F 8.6 °F 68% 30.24 in 10.0 mi NW 10.4 mph - N/A   Clear
8:55 PM 17.6 °F 6.4 °F 8.6 °F 68% 30.25 in 10.0 mi NW 9.2 mph - N/A   Clear
9:15 PM 17.6 °F 5.0 °F 6.8 °F 63% 30.24 in 10.0 mi WNW 11.5 mph - N/A   Clear
9:35 PM 17.6 °F 5.7 °F 8.6 °F 68% 30.25 in 10.0 mi WNW 10.4 mph - N/A   Clear
9:55 PM 17.6 °F 4.3 °F 8.6 °F 68% 30.25 in 10.0 mi WNW 12.7 mph - N/A   Mostly Cloudy
10:15 PM 17.6 °F 5.0 °F 6.8 °F 63% 30.26 in 10.0 mi NW 11.5 mph - N/A   Overcast
10:35 PM 17.6 °F 5.7 °F 6.8 °F 63% 30.26 in 9.0 mi NW 10.4 mph - N/A   Overcast
10:55 PM 17.6 °F 4.3 °F 8.6 °F 68% 30.26 in 10.0 mi NW 12.7 mph - N/A   Overcast
11:15 PM 15.8 °F 4.2 °F 10.4 °F 79% 30.27 in 2.5 mi NW 9.2 mph - N/A   Overcast
11:35 PM 15.8 °F 3.4 °F 10.4 °F 79% 30.26 in 2.0 mi WNW 10.4 mph - N/A   Overcast
11:55 PM 15.8 °F 3.4 °F 10.4 °F 79% 30.26 in 2.5 mi NW 10.4 mph - N/A   Overcast